Puerto Plata, Dominican Republic

11:46 PM AST on July 25, 2017 (GMT -0400)
Gregorio Luperon International

Weather History for MDPP - October, 2012

Change the Weather History Date:

Thursday, October 25, 2012

  Actual Average Record
Temperature  
Mean Temperature 78 °F -  
Max Temperature 81 °F 84 °F 96 °F (2014)
Min Temperature 75 °F 71 °F 70 °F (2015)
Cooling Degree Days 13    
Growing Degree Days 28 (Base 50)    
Moisture  
Dew Point 73 °F    
Average Humidity 81    
Maximum Humidity 94    
Minimum Humidity 66    
Precipitation  
Precipitation 0.04 in - - ()
Sea Level Pressure  
Sea Level Pressure 29.68 in    
Wind  
Wind Speed 10 mph ()    
Max Wind Speed 129 mph    
Max Gust Speed -    
Visibility 6.0 miles    
Events Rain    
Averages and records for this station are not official NWS values.
T = Trace of Precipitation, MM = Missing Value Source: Averaged Metar Reports

Daily Weather History Graph

Daily Weather History Graph

Search for Another Location

Airport or City:

Trip Planner

Search our weather history database for the weather conditions in past years. The results will help you decide how hot, cold, wet, or windy it might be!

Date:

Astronomy

Oct. 25, 2012 Rise Set
Actual Time 6:40 AM AST 6:11 PM AST
Civil Twilight 6:18 AM AST 6:34 PM AST
Nautical Twilight 5:52 AM AST 6:59 PM AST
Astronomical Twilight 5:26 AM AST 7:25 PM AST
Moon 3:31 PM AST (10/25) 3:03 AM AST (10/25)
Length of Visible Light 12h 15m
Length of Day
11h 31m
Waxing Gibbous, 84% of the Moon is Illuminated
Oct 25
Waxing Gibbous
Oct 29
Full
Nov 6
Last Quarter
Nov 13
New
Nov 20
First Quarter

Hourly Weather History & Observations

Time (AST) Temp. Heat Index Dew Point Humidity Pressure Visibility Wind Dir Wind Speed Gust Speed Precip Events Conditions
2:00 AM 75.2 °F - 73.4 °F 94% 29.71 in 5.0 mi Calm Calm - N/A Rain Light Rain
5:00 AM 77.0 °F - 73.4 °F 89% 29.68 in 5.0 mi ESE 17.3 mph - N/A Rain Light Rain
8:00 AM 77.0 °F - 73.4 °F 89% 29.74 in 4.3 mi Calm Calm - N/A Rain Light Rain
9:00 AM 77.0 °F - 73.4 °F 89% 29.74 in 5.0 mi ESE 11.5 mph - N/A Rain Light Rain
10:00 AM 78.8 °F - 73.4 °F 83% - 5.0 mi ESE 11.5 mph - N/A Rain Light Rain
11:00 AM 79 °F - 74 °F 81% 29.76 in 5 mi ESE 4.5 mph - -   Overcast
11:00 AM 78.8 °F - 75.2 °F 89% 29.74 in 5.0 mi ESE 5.8 mph - N/A Rain Light Rain
12:00 PM 80.6 °F 86.2 °F 75.2 °F 84% 29.71 in 5.0 mi East 8.1 mph - N/A Rain Light Rain
1:00 PM 80.6 °F 86.2 °F 75.2 °F 84% 29.68 in 5.0 mi East 11.5 mph - N/A Rain Light Rain
2:00 PM 80.6 °F 86.2 °F 75.2 °F 84% 29.68 in 5.0 mi East 6.9 mph - N/A Rain Light Rain
3:00 PM 80.6 °F 85.4 °F 73.4 °F 79% 29.65 in 5.0 mi SSE 16.1 mph - N/A Rain Light Rain
4:00 PM 80.6 °F 85.4 °F 73.4 °F 79% 29.62 in 5.0 mi SSE 128.9 mph - N/A Rain Light Rain
5:00 PM 82 °F - 74 °F 71% 29.65 in 10 mi ESE 13.4 mph - -   Partly Cloudy
5:00 PM 82.4 °F 88.2 °F 73.4 °F 74% 29.65 in 6.2 mi ESE 13.8 mph - N/A   Overcast
6:00 PM 80.6 °F 85.4 °F 73.4 °F 79% 29.65 in 6.2 mi ESE 9.2 mph - N/A   Mostly Cloudy
7:00 PM 80.6 °F 84.6 °F 71.6 °F 74% 29.62 in 6.2 mi SSE 8.1 mph - N/A   Overcast
8:00 PM 81 °F - 71 °F 66% 29.65 in 10 mi Calm Calm - -   Partly Cloudy
8:00 PM 80.6 °F 84.6 °F 71.6 °F 74% 29.62 in 6.2 mi Calm Calm - N/A   Scattered Clouds
11:00 PM 79 °F - 73 °F 76% 29.69 in 10 mi Calm Calm - -   Overcast
11:00 PM 78.8 °F - 73.4 °F 83% 29.68 in 6.2 mi Calm Calm - N/A   Overcast